Asswan, Egypt

9:19 AM EET on December 03, 2016 (GMT +0200)
Aswan International

Weather History for HESN - November, 2012

Change the Weather History Date:

Saturday, November 24, 2012

  Actual Average Record
Temperature  
Mean Temperature 69 °F -  
Max Temperature 80 °F 80 °F 96 °F (1999)
Min Temperature 58 °F 57 °F 50 °F (2004)
Cooling Degree Days 4    
Growing Degree Days 19 (Base 50)    
Moisture  
Dew Point 47 °F    
Average Humidity 46    
Maximum Humidity 68    
Minimum Humidity 23    
Precipitation  
Precipitation 0.00 in - - ()
Sea Level Pressure  
Sea Level Pressure 30.01 in    
Wind  
Wind Speed 7 mph ()    
Max Wind Speed 12 mph    
Max Gust Speed -    
Visibility 6.0 miles    
Events      
Averages and records for this station are not official NWS values.
T = Trace of Precipitation, MM = Missing Value Source: Averaged Metar Reports

Daily Weather History Graph

Daily Weather History Graph

Search for Another Location

Airport or City:

Trip Planner

Search our weather history database for the weather conditions in past years. The results will help you decide how hot, cold, wet, or windy it might be!

Date:

Astronomy

Nov. 24, 2012 Rise Set
Actual Time 6:09 AM EET 5:00 PM EET
Civil Twilight 5:45 AM EET 5:25 PM EET
Nautical Twilight 5:18 AM EET 5:52 PM EET
Astronomical Twilight 4:50 AM EET 6:20 PM EET
Moon 2:17 PM EET (11/24) 2:28 AM EET (11/24)
Length of Visible Light 11h 39m
Length of Day
10h 50m
Waxing Gibbous, 85% of the Moon is Illuminated
Nov 24
Waxing Gibbous
Nov 28
Full
Dec 6
Last Quarter
Dec 13
New
Dec 20
First Quarter

Hourly Weather History & Observations

Time (EET) Temp. Dew Point Humidity Pressure Visibility Wind Dir Wind Speed Gust Speed Precip Events Conditions
12:00 AM 64.4 °F 46.4 °F 52% 30.04 in - NNW 6.9 mph - N/A   Clear
1:00 AM 64.4 °F 48.2 °F 56% 30.01 in - NNW 9.2 mph - N/A   Clear
2:00 AM 63 °F 47 °F 46% 30.02 in 6 mi North 8.1 mph - -  
2:00 AM 62.6 °F 48.2 °F 59% 30.01 in - North 8.1 mph - N/A   Clear
3:00 AM 62.6 °F 48.2 °F 59% 30.01 in - North 11.5 mph - N/A   Clear
4:00 AM 60.8 °F 46.4 °F 59% 30.01 in - North 9.2 mph - N/A   Clear
5:00 AM 60.8 °F 48.2 °F 63% 30.01 in - North 5.8 mph - N/A   Clear
6:00 AM 59.0 °F 48.2 °F 67% 30.04 in - North 5.8 mph - N/A   Clear
7:00 AM 60.8 °F 50.0 °F 68% 30.04 in - NNE 8.1 mph - N/A   Clear
8:00 AM 63 °F 50 °F 54% 30.06 in 6 mi North 6.9 mph - -  
8:00 AM 62.6 °F 50.0 °F 63% 30.06 in - North 6.9 mph - N/A   Clear
9:00 AM 68.0 °F 51.8 °F 56% 30.06 in - North 11.5 mph - N/A   Clear
10:00 AM 71.6 °F 51.8 °F 50% 30.06 in - North 11.5 mph - N/A   Clear
11:00 AM 73.4 °F 51.8 °F 47% 30.04 in - NNE 9.2 mph - N/A   Clear
12:00 PM 77.0 °F 51.8 °F 41% 30.01 in - NNE 6.9 mph - N/A   Clear
1:00 PM 78.8 °F 50.0 °F 36% 29.98 in - North 5.8 mph - N/A   Clear
2:00 PM 80 °F 49 °F 23% 29.94 in 6 mi NNW 8.1 mph - -  
2:00 PM 78.8 °F 48.2 °F 34% 29.95 in - NNW 8.1 mph - N/A   Clear
3:00 PM 80.6 °F 48.2 °F 32% 29.95 in - NNW 8.1 mph - N/A   Clear
4:00 PM 78.8 °F 48.2 °F 34% 29.95 in - NNW 6.9 mph - N/A   Clear
5:00 PM 77.0 °F 46.4 °F 34% 29.98 in - NNW 8.1 mph - N/A   Clear
6:00 PM 75.2 °F 44.6 °F 34% 29.98 in - NW 9.2 mph - N/A   Clear
7:00 PM 73.4 °F 42.8 °F 33% 30.01 in - North 8.1 mph - N/A   Clear
8:00 PM 72 °F 44 °F 26% 30.00 in 6 mi North 9.2 mph - -  
8:00 PM 71.6 °F 44.6 °F 38% 30.01 in - North 9.2 mph - N/A   Clear
9:00 PM 69.8 °F 42.8 °F 38% 30.01 in - NNW 10.4 mph - N/A   Clear
10:00 PM 68.0 °F 41.0 °F 37% 30.01 in - NNW 9.2 mph - N/A   Clear
11:00 PM 66.2 °F 41.0 °F 40% 30.01 in - NW 10.4 mph - N/A   Clear